South Lake Tahoe, CA

8:47 PM PDT on April 22, 2018 (GMT -0700)
Lake Tahoe

Weather History for KTVL - April, 2014

Change the Weather History Date:

Saturday, April 5, 2014

  Actual Average Record
Temperature  
Mean Temperature 38 °F 38 °F  
Max Temperature 51 °F 52 °F 66 °F (1985)
Min Temperature 25 °F 25 °F 15 °F (2003)
Degree Days  
Heating Degree Days 27 27  
Month to date heating degree days 125 135  
Since 1 July heating degree days 5525 6287  
Cooling Degree Days 0 0  
Month to date cooling degree days 0 0  
Year to date cooling degree days 0 0  
Moisture  
Dew Point 22 °F    
Average Humidity 49    
Maximum Humidity 75    
Minimum Humidity 23    
Precipitation  
Precipitation 0.00 in - 1.03 in (1980)
Month to date precipitation 0.05  
Year to date precipitation 10.39  
Sea Level Pressure  
Sea Level Pressure 30.07 in    
Wind  
Wind Speed 4 mph (SSE)    
Max Wind Speed 15 mph    
Max Gust Speed 19 mph    
Visibility 10 miles    
Events      
T = Trace of Precipitation, MM = Missing Value Source: NWS Daily Summary

Daily Weather History Graph

Daily Weather History Graph

Search for Another Location

Airport or City:

Astronomy

Apr. 05, 2014 Rise Set
Actual Time 6:38 AM PDT 7:27 PM PDT
Civil Twilight 6:11 AM PDT 7:54 PM PDT
Nautical Twilight 5:39 AM PDT 8:26 PM PDT
Astronomical Twilight 5:06 AM PDT 8:59 PM PDT
Moon 10:52 AM PDT (4/5) 12:39 AM PDT (4/5)
Length of Visible Light 13h 43m
Length of Day
12h 49m
Waxing Crescent, 35% of the Moon is Illuminated
Apr 5
Waxing Crescent
Apr 7
First Quarter
Apr 15
Full
Apr 22
Last Quarter
Apr 28
New

Hourly Weather History & Observations

Time (PDT) Temp. Windchill Dew Point Humidity Pressure Visibility Wind Dir Wind Speed Gust Speed Precip Events Conditions
12:53 AM 28.9 °F 25.2 °F 21.0 °F 72% 29.95 in 10.0 mi South 3.5 mph - N/A   Clear
1:53 AM 28.9 °F 25.2 °F 19.9 °F 69% 29.96 in 10.0 mi SSW 3.5 mph - N/A   Mostly Cloudy
2:53 AM 28.9 °F 23.9 °F 19.9 °F 69% 29.96 in 10.0 mi South 4.6 mph - N/A   Partly Cloudy
3:53 AM 28.0 °F - 19.9 °F 72% 29.96 in 10.0 mi Calm Calm - N/A   Clear
4:53 AM 26.1 °F 21.9 °F 19.9 °F 78% 29.98 in 10.0 mi South 3.5 mph - N/A   Clear
5:53 AM 26.1 °F 19.4 °F 19.0 °F 75% 29.99 in 10.0 mi South 5.8 mph - N/A   Clear
6:53 AM 26.1 °F - 19.0 °F 75% 30.03 in 10.0 mi Calm Calm - N/A   Mostly Cloudy
7:53 AM 30.0 °F 24.1 °F 19.9 °F 66% 30.05 in 10.0 mi South 5.8 mph - N/A   Overcast
8:34 AM 34.0 °F 29.8 °F 21.9 °F 61% 30.06 in 10.0 mi South 4.6 mph - N/A   Scattered Clouds
8:53 AM 36.0 °F 33.3 °F 23.0 °F 59% 30.04 in 10.0 mi South 3.5 mph - N/A   Clear
9:53 AM 39.9 °F 36.7 °F 24.1 °F 53% 30.05 in 10.0 mi NE 4.6 mph - N/A   Clear
10:53 AM 43.0 °F 39.5 °F 25.0 °F 49% 30.06 in 10.0 mi Variable 5.8 mph - N/A   Clear
11:53 AM 45.0 °F 40.1 °F 26.1 °F 48% 30.06 in 10.0 mi NNE 9.2 mph - N/A   Clear
12:53 PM 46.9 °F - 23.0 °F 39% 30.06 in 10.0 mi North - - N/A   Clear
1:53 PM 48.9 °F - 12.9 °F 24% 30.07 in 10.0 mi Variable 5.8 mph - N/A   Clear
2:53 PM 50.0 °F - 19.0 °F 29% 30.06 in 10.0 mi Calm Calm - N/A   Clear
3:53 PM 51.1 °F - 19.9 °F 29% 30.06 in 10.0 mi NE 6.9 mph 18.4 mph N/A   Clear
4:53 PM 50.0 °F - 19.0 °F 29% 30.09 in 10.0 mi NNE 9.2 mph - N/A   Clear
5:53 PM 48.0 °F - 18.0 °F 30% 30.11 in 10.0 mi North 4.6 mph - N/A   Clear
6:53 PM 44.1 °F - 24.1 °F 45% 30.14 in 10.0 mi Calm Calm - N/A   Clear
7:53 PM 39.9 °F - 25.0 °F 55% 30.15 in 10.0 mi Calm Calm - N/A   Mostly Cloudy
8:53 PM 37.0 °F - 26.1 °F 65% 30.18 in 10.0 mi Calm Calm - N/A   Partly Cloudy
9:53 PM 34.0 °F - 25.0 °F 70% 30.19 in 10.0 mi Calm Calm - N/A   Clear
10:53 PM 33.1 °F 28.7 °F 25.0 °F 72% 30.19 in 10.0 mi South 4.6 mph - N/A   Clear
11:53 PM 32.0 °F 26.4 °F 24.1 °F 73% 30.21 in 10.0 mi South 5.8 mph - N/A   Clear